| time (UTC) | temp F | wind direction | speed MPH | gust MPH | rain 1hr in | rain 24hr in | rain mn in | humidity % | barometer mb |
| 20260831220151 | 80 | 105 | 5.0 | 7.0 | 0.12 | 0.02 | 0.02 | 85 | 1023.8 |
| 20260831215646 | 83 | 153 | 5.0 | 9.0 | 0.07 | 0.01 | 0.01 | 86 | 1023.6 |
| 20260831215142 | 86 | 66 | 6.0 | 9.0 | 0.00 | 0.00 | 0.00 | 77 | 1023.7 |
| 20260831214639 | 87 | 153 | 5.0 | 7.0 | 0.00 | 0.00 | 0.00 | 75 | 1023.8 |
| 20260831214135 | 88 | 143 | 4.0 | 6.0 | 0.00 | 0.00 | 0.00 | 74 | 1023.8 |
| 20260831213632 | 89 | 190 | 9.0 | 10.0 | 0.00 | 0.00 | 0.00 | 71 | 1023.7 |
| 20260831213126 | 92 | 128 | 4.0 | 6.0 | 0.00 | 0.00 | 0.00 | 64 | 1023.5 |
| 20260831212622 | 93 | 173 | 1.0 | 2.0 | 0.00 | 0.00 | 0.00 | 62 | 1023.3 |
| 20260831212119 | 92 | 108 | 2.0 | 3.0 | 0.00 | 0.00 | 0.00 | 66 | 1023.4 |
| 20260831211613 | 91 | 81 | 1.0 | 2.0 | 0.00 | 0.00 | 0.00 | 66 | 1023.3 |
| 20260831211112 | 91 | 153 | 2.0 | 5.0 | 0.00 | 0.00 | 0.00 | 68 | 1023.4 |
| 20260831210607 | 90 | 126 | 1.0 | 2.0 | 0.00 | 0.00 | 0.00 | 66 | 1023.5 |
| 20260831210103 | 90 | 124 | 1.0 | 2.0 | 0.00 | 0.00 | 0.00 | 67 | 1023.5 |
| 20260831205602 | 90 | 76 | 3.0 | 3.0 | 0.00 | 0.00 | 0.00 | 67 | 1023.3 |
| 20260831205059 | 93 | 102 | 1.0 | 5.0 | 0.00 | 0.00 | 0.00 | 66 | 1023.4 |
| 20260831204553 | 92 | 134 | 0.0 | 1.0 | 0.00 | 0.00 | 0.00 | 65 | 1023.4 |
| 20260831204052 | 90 | 115 | 0.0 | 1.0 | 0.00 | 0.00 | 0.00 | 66 | 1023.3 |
| 20260831203546 | 88 | 109 | 0.0 | 1.0 | 0.00 | 0.00 | 0.00 | 71 | 1023.7 |
| 20260831203045 | 88 | 88 | 0.0 | 2.0 | 0.00 | 0.00 | 0.00 | 69 | 1023.6 |
| 20260831202544 | 89 | 78 | 1.0 | 2.0 | 0.00 | 0.00 | 0.00 | 70 | 1023.5 |
| 20260831202039 | 92 | 137 | 1.0 | 2.0 | 0.00 | 0.00 | 0.00 | 62 | 1023.8 |
| 20260831201537 | 92 | 115 | 4.0 | 6.0 | 0.00 | 0.00 | 0.00 | 63 | 1023.6 |
| 20260831201033 | 93 | 106 | 1.0 | 2.0 | 0.00 | 0.00 | 0.00 | 63 | 1023.8 |
| 20260831200523 | 90 | 135 | 0.0 | 2.0 | 0.00 | 0.00 | 0.00 | 67 | 1023.8 |
| 20260831200018 | 90 | 98 | 3.0 | 5.0 | 0.00 | 0.00 | 0.00 | 68 | 1023.8 |
| 20260831195514 | 91 | 12 | 4.0 | 8.0 | 0.00 | 0.00 | 0.00 | 67 | 1023.9 |
| 20260831195013 | 91 | 70 | 1.0 | 2.0 | 0.00 | 0.00 | 0.00 | 65 | 1023.9 |
| 20260831194508 | 91 | 129 | 1.0 | 1.0 | 0.00 | 0.00 | 0.00 | 66 | 1023.6 |
| 20260831194003 | 91 | 88 | 2.0 | 3.0 | 0.00 | 0.00 | 0.00 | 67 | 1023.7 |
| 20260831193458 | 91 | 114 | 1.0 | 3.0 | 0.00 | 0.00 | 0.00 | 69 | 1024.0 |
| 20260831192953 | 92 | 64 | 4.0 | 6.0 | 0.00 | 0.00 | 0.00 | 66 | 1024.2 |
| 20260831192448 | 91 | 127 | 1.0 | 3.0 | 0.00 | 0.00 | 0.00 | 65 | 1024.5 |
| 20260831191943 | 91 | 58 | 2.0 | 3.0 | 0.00 | 0.00 | 0.00 | 64 | 1024.4 |
| 20260831191439 | 89 | 131 | 1.0 | 2.0 | 0.00 | 0.00 | 0.00 | 70 | 1024.3 |
| 20260831190935 | 90 | 94 | 3.0 | 6.0 | 0.00 | 0.00 | 0.00 | 69 | 1024.4 |
| 20260831190430 | 90 | 71 | 1.0 | 2.0 | 0.00 | 0.00 | 0.00 | 65 | 1024.8 |
| 20260831185929 | 90 | 74 | 3.0 | 5.0 | 0.00 | 0.00 | 0.00 | 66 | 1024.6 |
| 20260831185425 | 90 | 96 | 1.0 | 2.0 | 0.00 | 0.00 | 0.00 | 65 | 1024.7 |
| 20260831184924 | 90 | 82 | 1.0 | 3.0 | 0.00 | 0.00 | 0.00 | 66 | 1024.8 |
| 20260831184419 | 91 | 210 | 1.0 | 2.0 | 0.00 | 0.00 | 0.00 | 70 | 1024.7 |
| 20260831183914 | 89 | 109 | 1.0 | 2.0 | 0.00 | 0.00 | 0.00 | 68 | 1025.0 |
| 20260831183413 | 90 | 109 | 1.0 | 2.0 | 0.00 | 0.00 | 0.00 | 69 | 1024.9 |
| 20260831182908 | 88 | 108 | 1.0 | 2.0 | 0.00 | 0.00 | 0.00 | 70 | 1025.2 |
| 20260831182403 | 88 | 102 | 3.0 | 7.0 | 0.00 | 0.00 | 0.00 | 71 | 1025.2 |
| 20260831181858 | 90 | 72 | 3.0 | 6.0 | 0.00 | 0.00 | 0.00 | 68 | 1025.3 |
| 20260831181353 | 89 | 231 | 2.0 | 2.0 | 0.00 | 0.00 | 0.00 | 69 | 1025.2 |
| 20260831180848 | 89 | 150 | 3.0 | 5.0 | 0.00 | 0.00 | 0.00 | 67 | 1025.1 |
| 20260831180343 | 89 | 29 | 3.0 | 3.0 | 0.00 | 0.00 | 0.00 | 70 | 1025.3 |
| 20260831175841 | 88 | 91 | 1.0 | 6.0 | 0.00 | 0.00 | 0.00 | 71 | 1025.6 |
| 20260831175338 | 88 | 105 | 2.0 | 3.0 | 0.00 | 0.00 | 0.00 | 73 | 1025.5 |
| 20260831174834 | 89 | 119 | 5.0 | 9.0 | 0.00 | 0.00 | 0.00 | 72 | 1025.6 |
| 20260831174330 | 88 | 107 | 1.0 | 3.0 | 0.00 | 0.00 | 0.00 | 71 | 1025.6 |
| 20260831173829 | 88 | 82 | 3.0 | 6.0 | 0.00 | 0.00 | 0.00 | 71 | 1025.7 |
| 20260831173328 | 88 | 140 | 2.0 | 6.0 | 0.00 | 0.00 | 0.00 | 72 | 1026.0 |
| 20260831172824 | 88 | 22 | 2.0 | 5.0 | 0.00 | 0.00 | 0.00 | 71 | 1026.0 |
| 20260831172319 | 87 | 109 | 3.0 | 8.0 | 0.00 | 0.00 | 0.00 | 77 | 1025.9 |
| 20260831171819 | 87 | 93 | 2.0 | 7.0 | 0.00 | 0.00 | 0.00 | 73 | 1026.0 |
| 20260831171316 | 86 | 95 | 2.0 | 6.0 | 0.00 | 0.00 | 0.00 | 72 | 1026.1 |
| 20260831170812 | 87 | 122 | 2.0 | 6.0 | 0.00 | 0.00 | 0.00 | 74 | 1026.5 |
| 20260831170308 | 87 | 37 | 2.0 | 3.0 | 0.00 | 0.00 | 0.00 | 78 | 1026.3 |
| 20260831165804 | 88 | 59 | 0.0 | 1.0 | 0.00 | 0.00 | 0.00 | 76 | 1026.2 |
| 20260831165301 | 86 | 150 | 5.0 | 7.0 | 0.00 | 0.00 | 0.00 | 77 | 1026.4 |
| 20260831164756 | 86 | 150 | 1.0 | 1.0 | 0.00 | 0.00 | 0.00 | 80 | 1026.3 |
| 20260831164253 | 87 | 108 | 1.0 | 2.0 | 0.00 | 0.00 | 0.00 | 76 | 1026.4 |
| 20260831163747 | 86 | 121 | 1.0 | 3.0 | 0.00 | 0.00 | 0.00 | 78 | 1026.3 |
| 20260831163243 | 86 | 73 | 2.0 | 2.0 | 0.00 | 0.00 | 0.00 | 80 | 1026.3 |
| 20260831162741 | 87 | 76 | 3.0 | 5.0 | 0.00 | 0.00 | 0.00 | 76 | 1026.6 |
| 20260831162236 | 85 | 118 | 0.0 | 2.0 | 0.00 | 0.00 | 0.00 | 78 | 1026.7 |
| 20260831161730 | 86 | 107 | 1.0 | 2.0 | 0.00 | 0.00 | 0.00 | 81 | 1026.7 |
| 20260831161226 | 85 | 128 | 1.0 | 1.0 | 0.00 | 0.00 | 0.00 | 81 | 1026.6 |
| 20260831160721 | 85 | 142 | 0.0 | 2.0 | 0.00 | 0.00 | 0.00 | 81 | 1026.4 |
| 20260831160216 | 84 | 96 | 1.0 | 2.0 | 0.00 | 0.00 | 0.00 | 81 | 1026.6 |
| 20260831155715 | 84 | 94 | 1.0 | 2.0 | 0.00 | 0.00 | 0.00 | 83 | 1026.6 |
| 20260831155211 | 84 | 123 | 1.0 | 2.0 | 0.00 | 0.00 | 0.00 | 82 | 1026.7 |
| 20260831154707 | 85 | 103 | 2.0 | 5.0 | 0.00 | 0.00 | 0.00 | 79 | 1026.8 |
| 20260831154202 | 85 | 139 | 2.0 | 5.0 | 0.00 | 0.00 | 0.00 | 80 | 1026.8 |
| 20260831153701 | 85 | 59 | 2.0 | 5.0 | 0.00 | 0.00 | 0.00 | 80 | 1026.7 |
| 20260831153157 | 85 | 87 | 3.0 | 5.0 | 0.00 | 0.00 | 0.00 | 81 | 1026.8 |
| 20260831152653 | 85 | 115 | 1.0 | 2.0 | 0.00 | 0.00 | 0.00 | 83 | 1026.5 |
| 20260831152149 | 85 | 111 | 2.0 | 6.0 | 0.00 | 0.00 | 0.00 | 81 | 1026.6 |
| 20260831151648 | 85 | 120 | 2.0 | 3.0 | 0.00 | 0.00 | 0.00 | 82 | 1026.5 |
| 20260831151142 | 84 | 124 | 1.0 | 2.0 | 0.00 | 0.00 | 0.00 | 84 | 1026.6 |
| 20260831150638 | 84 | 94 | 1.0 | 3.0 | 0.00 | 0.00 | 0.00 | 85 | 1026.3 |
| 20260831150133 | 84 | 130 | 0.0 | 1.0 | 0.00 | 0.00 | 0.00 | 86 | 1026.3 |
| 20260831145627 | 83 | 91 | 1.0 | 2.0 | 0.00 | 0.00 | 0.00 | 87 | 1026.5 |
| 20260831145124 | 82 | 99 | 1.0 | 2.0 | 0.00 | 0.00 | 0.00 | 89 | 1026.3 |
| 20260831144619 | 83 | 45 | 3.0 | 6.0 | 0.00 | 0.00 | 0.00 | 88 | 1026.4 |
| 20260831144114 | 83 | 26 | 2.0 | 5.0 | 0.00 | 0.00 | 0.00 | 89 | 1026.3 |
| 20260831143609 | 82 | 127 | 0.0 | 3.0 | 0.00 | 0.00 | 0.00 | 90 | 1026.3 |
| 20260831143104 | 81 | 119 | 1.0 | 2.0 | 0.00 | 0.00 | 0.00 | 92 | 1026.4 |
| 20260831142601 | 81 | 106 | 1.0 | 2.0 | 0.00 | 0.00 | 0.00 | 93 | 1026.4 |
| 20260831142056 | 80 | 98 | 2.0 | 5.0 | 0.00 | 0.00 | 0.00 | 95 | 1026.4 |
| 20260831141554 | 80 | 37 | 3.0 | 5.0 | 0.00 | 0.00 | 0.00 | 96 | 1026.4 |
| 20260831141050 | 79 | 93 | 2.0 | 2.0 | 0.00 | 0.00 | 0.00 | 98 | 1026.3 |
| 20260831140549 | 78 | 130 | 1.0 | 5.0 | 0.00 | 0.00 | 0.00 | 99 | 1026.6 |
| 20260831140049 | 78 | 109 | 0.0 | 3.0 | 0.00 | 0.00 | 0.00 | 99 | 1026.5 |
| 20260831135547 | 78 | 122 | 0.0 | 2.0 | 0.00 | 0.00 | 0.00 | 99 | 1026.5 |
| 20260831135043 | 77 | 91 | 2.0 | 5.0 | 0.00 | 0.00 | 0.00 | 99 | 1026.2 |
| 20260831134538 | 78 | 120 | 1.0 | 3.0 | 0.00 | 0.00 | 0.00 | 99 | 1026.3 |
| 20260831134033 | 78 | 124 | 0.0 | 2.0 | 0.00 | 0.00 | 0.00 | 99 | 1026.3 |
| 20260831133527 | 77 | 108 | 1.0 | 1.0 | 0.00 | 0.00 | 0.00 | 99 | 1026.3 |
| 20260831133022 | 77 | 125 | 0.0 | 5.0 | 0.00 | 0.00 | 0.00 | 99 | 1026.5 |
| 20260831132518 | 77 | 110 | 1.0 | 2.0 | 0.00 | 0.00 | 0.00 | 99 | 1026.2 |
| 20260831132017 | 76 | 84 | 1.0 | 2.0 | 0.00 | 0.00 | 0.00 | 99 | 1026.6 |
| 20260831131517 | 76 | 125 | 0.0 | 1.0 | 0.00 | 0.00 | 0.00 | 99 | 1026.7 |
| 20260831131013 | 75 | 107 | 0.0 | 1.0 | 0.00 | 0.00 | 0.00 | 99 | 1026.5 |
| 20260831130508 | 75 | 130 | 0.0 | 2.0 | 0.00 | 0.00 | 0.00 | 99 | 1026.5 |
| 20260831130004 | 75 | 112 | 1.0 | 5.0 | 0.00 | 0.00 | 0.00 | 99 | 1026.7 |
| 20260831125457 | 75 | 130 | 0.0 | 0.0 | 0.00 | 0.00 | 0.00 | 99 | 1026.5 |
| 20260831124953 | 75 | 96 | 2.0 | 2.0 | 0.00 | 0.00 | 0.00 | 99 | 1026.7 |
| 20260831124449 | 75 | 105 | 1.0 | 2.0 | 0.00 | 0.00 | 0.00 | 99 | 1026.5 |
| 20260831123944 | 75 | 124 | 0.0 | 0.0 | 0.00 | 0.00 | 0.00 | 99 | 1026.4 |
| 20260831123443 | 74 | 130 | 0.0 | 0.0 | 0.00 | 0.00 | 0.00 | 99 | 1026.4 |
| 20260831122938 | 74 | 102 | 0.0 | 0.0 | 0.00 | 0.00 | 0.00 | 99 | 1026.2 |
| 20260831122433 | 74 | 110 | 0.0 | 0.0 | 0.00 | 0.00 | 0.00 | 99 | 1026.2 |
| 20260831121929 | 74 | 116 | 0.0 | 1.0 | 0.00 | 0.00 | 0.00 | 99 | 1026.0 |
| 20260831121424 | 74 | 111 | 0.0 | 1.0 | 0.00 | 0.00 | 0.00 | 99 | 1026.0 |
| 20260831120919 | 74 | 110 | 0.0 | 0.0 | 0.00 | 0.00 | 0.00 | 99 | 1025.9 |
| 20260831120413 | 74 | 110 | 0.0 | 0.0 | 0.00 | 0.00 | 0.00 | 99 | 1025.9 |
| 20260831115908 | 74 | 109 | 1.0 | 1.0 | 0.00 | 0.00 | 0.00 | 99 | 1025.9 |
| 20260831115405 | 73 | 117 | 0.0 | 1.0 | 0.00 | 0.00 | 0.00 | 99 | 1025.8 |
| 20260831114904 | 73 | 66 | 2.0 | 2.0 | 0.00 | 0.00 | 0.00 | 99 | 1025.7 |
| 20260831114403 | 73 | 83 | 0.0 | 0.0 | 0.00 | 0.00 | 0.00 | 99 | 1025.7 |
| 20260831113858 | 73 | 82 | 0.0 | 0.0 | 0.00 | 0.00 | 0.00 | 99 | 1025.7 |
| 20260831113353 | 73 | 82 | 0.0 | 0.0 | 0.00 | 0.00 | 0.00 | 99 | 1025.6 |
| 20260831112848 | 73 | 82 | 0.0 | 0.0 | 0.00 | 0.00 | 0.00 | 99 | 1025.6 |
| 20260831112342 | 72 | 95 | 0.0 | 0.0 | 0.00 | 0.00 | 0.00 | 99 | 1025.7 |
| 20260831111837 | 72 | 104 | 0.0 | 0.0 | 0.00 | 0.00 | 0.00 | 99 | 1025.6 |
| 20260831111334 | 72 | 154 | 0.0 | 0.0 | 0.00 | 0.00 | 0.00 | 99 | 1025.5 |
| 20260831110829 | 72 | 98 | 0.0 | 0.0 | 0.00 | 0.00 | 0.00 | 99 | 1025.3 |
| 20260831110324 | 72 | 98 | 0.0 | 0.0 | 0.00 | 0.00 | 0.00 | 99 | 1025.4 |
| 20260831105822 | 73 | 98 | 0.0 | 0.0 | 0.00 | 0.00 | 0.00 | 99 | 1025.4 |
| 20260831105318 | 73 | 98 | 0.0 | 0.0 | 0.00 | 0.00 | 0.00 | 99 | 1025.4 |
| 20260831104818 | 73 | 98 | 0.0 | 0.0 | 0.00 | 0.00 | 0.00 | 99 | 1025.4 |
| 20260831104315 | 73 | 98 | 0.0 | 0.0 | 0.00 | 0.00 | 0.00 | 99 | 1025.4 |
| 20260831103814 | 73 | 98 | 0.0 | 0.0 | 0.00 | 0.00 | 0.00 | 99 | 1025.2 |
| 20260831103310 | 73 | 98 | 0.0 | 0.0 | 0.00 | 0.00 | 0.00 | 99 | 1025.1 |
| 20260831102805 | 73 | 98 | 0.0 | 0.0 | 0.00 | 0.00 | 0.00 | 99 | 1025.3 |
| 20260831102300 | 73 | 98 | 0.0 | 0.0 | 0.00 | 0.00 | 0.00 | 99 | 1025.0 |
| 20260831101755 | 72 | 98 | 0.0 | 0.0 | 0.00 | 0.00 | 0.00 | 99 | 1025.2 |
| 20260831101251 | 73 | 100 | 0.0 | 1.0 | 0.00 | 0.00 | 0.00 | 99 | 1025.1 |
| 20260831100747 | 72 | 100 | 0.0 | 0.0 | 0.00 | 0.00 | 0.00 | 99 | 1025.1 |
| 20260831100243 | 72 | 101 | 0.0 | 0.0 | 0.00 | 0.00 | 0.00 | 99 | 1025.2 |
| 20260831095742 | 72 | 100 | 0.0 | 0.0 | 0.00 | 0.00 | 0.00 | 99 | 1025.1 |
| 20260831095236 | 72 | 100 | 0.0 | 0.0 | 0.00 | 0.00 | 0.00 | 99 | 1025.1 |
| 20260831094731 | 73 | 100 | 0.0 | 0.0 | 0.00 | 0.00 | 0.00 | 99 | 1025.1 |
| 20260831094227 | 72 | 100 | 0.0 | 0.0 | 0.00 | 0.00 | 0.00 | 99 | 1025.1 |
| 20260831093723 | 72 | 100 | 0.0 | 0.0 | 0.00 | 0.00 | 0.00 | 99 | 1025.3 |
| 20260831093218 | 72 | 100 | 0.0 | 0.0 | 0.00 | 0.00 | 0.00 | 99 | 1025.1 |
| 20260831092715 | 73 | 100 | 0.0 | 0.0 | 0.00 | 0.00 | 0.00 | 99 | 1025.0 |
| 20260831092210 | 73 | 100 | 0.0 | 0.0 | 0.00 | 0.00 | 0.00 | 99 | 1024.9 |
| 20260831091709 | 73 | 100 | 0.0 | 0.0 | 0.00 | 0.00 | 0.00 | 99 | 1025.0 |
| 20260831091205 | 72 | 100 | 0.0 | 0.0 | 0.00 | 0.00 | 0.00 | 99 | 1024.9 |
| 20260831090700 | 72 | 100 | 0.0 | 0.0 | 0.00 | 0.00 | 0.00 | 99 | 1024.9 |
| 20260831090156 | 73 | 100 | 0.0 | 0.0 | 0.00 | 0.00 | 0.00 | 99 | 1025.1 |
| 20260831085651 | 73 | 100 | 0.0 | 0.0 | 0.00 | 0.00 | 0.00 | 99 | 1024.9 |
| 20260831085147 | 73 | 100 | 0.0 | 0.0 | 0.00 | 0.00 | 0.00 | 99 | 1025.1 |
| 20260831084642 | 73 | 100 | 0.0 | 0.0 | 0.00 | 0.00 | 0.00 | 99 | 1025.2 |
| 20260831084138 | 73 | 100 | 0.0 | 0.0 | 0.00 | 0.00 | 0.00 | 99 | 1025.1 |
| 20260831083634 | 73 | 100 | 0.0 | 0.0 | 0.00 | 0.00 | 0.00 | 99 | 1025.1 |
| 20260831083129 | 73 | 100 | 0.0 | 0.0 | 0.00 | 0.00 | 0.00 | 99 | 1024.8 |
| 20260831082627 | 73 | 100 | 0.0 | 0.0 | 0.00 | 0.00 | 0.00 | 99 | 1025.0 |
| 20260831082123 | 73 | 100 | 0.0 | 0.0 | 0.00 | 0.00 | 0.00 | 99 | 1024.9 |
| 20260831081618 | 73 | 100 | 0.0 | 0.0 | 0.00 | 0.00 | 0.00 | 99 | 1024.8 |
| 20260831081114 | 73 | 99 | 0.0 | 0.0 | 0.00 | 0.00 | 0.00 | 99 | 1025.1 |
| 20260831080609 | 72 | 101 | 0.0 | 0.0 | 0.00 | 0.00 | 0.00 | 99 | 1025.1 |
| 20260831080104 | 72 | 101 | 0.0 | 0.0 | 0.00 | 0.00 | 0.00 | 99 | 1025.2 |
| 20260831075600 | 73 | 101 | 0.0 | 0.0 | 0.00 | 0.00 | 0.00 | 99 | 1025.2 |
| 20260831075055 | 73 | 101 | 0.0 | 0.0 | 0.00 | 0.00 | 0.00 | 99 | 1025.1 |
| 20260831074554 | 73 | 101 | 0.0 | 0.0 | 0.00 | 0.00 | 0.00 | 99 | 1025.2 |
| 20260831074049 | 73 | 101 | 0.0 | 0.0 | 0.00 | 0.00 | 0.00 | 99 | 1025.1 |
| 20260831073544 | 73 | 101 | 0.0 | 0.0 | 0.00 | 0.00 | 0.00 | 99 | 1025.1 |
| 20260831073043 | 73 | 101 | 0.0 | 0.0 | 0.00 | 0.00 | 0.00 | 99 | 1025.1 |
| 20260831072539 | 73 | 101 | 0.0 | 0.0 | 0.00 | 0.00 | 0.00 | 99 | 1024.9 |
| 20260831072035 | 73 | 100 | 0.0 | 0.0 | 0.00 | 0.00 | 0.00 | 99 | 1025.0 |
| 20260831071534 | 73 | 101 | 0.0 | 0.0 | 0.00 | 0.00 | 0.00 | 99 | 1024.9 |
| 20260831071029 | 73 | 103 | 0.0 | 0.0 | 0.00 | 0.00 | 0.00 | 99 | 1025.1 |
| 20260831070528 | 73 | 103 | 0.0 | 0.0 | 0.00 | 0.00 | 0.00 | 99 | 1024.9 |
| 20260831070023 | 73 | 103 | 0.0 | 0.0 | 0.00 | 0.00 | 0.00 | 99 | 1024.9 |
| 20260831065521 | 73 | 103 | 0.0 | 0.0 | 0.00 | 0.00 | 0.00 | 99 | 1024.9 |
| 20260831065015 | 73 | 103 | 0.0 | 0.0 | 0.00 | 0.00 | 0.00 | 99 | 1024.8 |
| 20260831064511 | 73 | 103 | 0.0 | 0.0 | 0.00 | 0.00 | 0.00 | 99 | 1024.9 |
| 20260831064006 | 73 | 102 | 0.0 | 0.0 | 0.00 | 0.00 | 0.00 | 99 | 1025.0 |
| 20260831063502 | 73 | 104 | 0.0 | 0.0 | 0.00 | 0.00 | 0.00 | 99 | 1025.1 |
| 20260831063001 | 73 | 104 | 0.0 | 0.0 | 0.00 | 0.00 | 0.00 | 99 | 1025.1 |
| 20260831062457 | 73 | 104 | 0.0 | 0.0 | 0.00 | 0.00 | 0.00 | 99 | 1025.1 |
| 20260831061955 | 73 | 104 | 0.0 | 0.0 | 0.00 | 0.00 | 0.00 | 99 | 1025.0 |
| 20260831061454 | 73 | 104 | 0.0 | 0.0 | 0.00 | 0.00 | 0.00 | 99 | 1025.1 |
| 20260831060951 | 73 | 104 | 0.0 | 0.0 | 0.00 | 0.00 | 0.00 | 99 | 1025.0 |
| 20260831060450 | 74 | 103 | 0.0 | 0.0 | 0.00 | 0.00 | 0.00 | 99 | 1025.0 |
| 20260831055945 | 74 | 103 | 0.0 | 0.0 | 0.00 | 0.00 | 0.00 | 99 | 1025.3 |
| 20260831055440 | 74 | 103 | 0.0 | 0.0 | 0.00 | 0.00 | 0.00 | 99 | 1025.1 |
| 20260831054935 | 74 | 103 | 0.0 | 0.0 | 0.00 | 0.00 | 0.00 | 99 | 1025.1 |
| 20260831054430 | 74 | 103 | 0.0 | 0.0 | 0.00 | 0.00 | 0.00 | 99 | 1025.2 |
| 20260831053929 | 74 | 103 | 0.0 | 0.0 | 0.00 | 0.00 | 0.00 | 99 | 1025.5 |
| 20260831053427 | 74 | 103 | 0.0 | 0.0 | 0.00 | 0.00 | 0.00 | 99 | 1025.4 |
| 20260831052922 | 74 | 103 | 0.0 | 0.0 | 0.00 | 0.00 | 0.00 | 99 | 1025.3 |
| 20260831052422 | 74 | 103 | 0.0 | 0.0 | 0.00 | 0.00 | 0.00 | 99 | 1025.2 |
| 20260831051920 | 74 | 102 | 0.0 | 0.0 | 0.00 | 0.00 | 0.00 | 99 | 1025.5 |
| 20260831051419 | 74 | 105 | 0.0 | 0.0 | 0.00 | 0.00 | 0.00 | 99 | 1025.5 |
| 20260831050914 | 74 | 105 | 1.0 | 1.0 | 0.00 | 0.00 | 0.00 | 99 | 1025.4 |
| 20260831050408 | 74 | 105 | 0.0 | 0.0 | 0.00 | 0.00 | 0.00 | 99 | 1025.6 |
| 20260831045907 | 74 | 105 | 0.0 | 1.0 | 0.00 | 0.00 | 0.00 | 99 | 1025.5 |
| 20260831045406 | 74 | 105 | 1.0 | 1.0 | 0.00 | 0.00 | 0.00 | 99 | 1025.4 |
| 20260831044902 | 74 | 105 | 0.0 | 1.0 | 0.00 | 0.00 | 0.00 | 99 | 1025.6 |
| 20260831044401 | 75 | 105 | 1.0 | 1.0 | 0.00 | 0.00 | 0.00 | 99 | 1025.3 |
| 20260831043858 | 75 | 105 | 1.0 | 1.0 | 0.00 | 0.00 | 0.00 | 99 | 1025.3 |
| 20260831043357 | 75 | 105 | 0.0 | 0.0 | 0.00 | 0.00 | 0.00 | 99 | 1025.6 |
| 20260831042853 | 74 | 105 | 0.0 | 0.0 | 0.00 | 0.00 | 0.00 | 99 | 1025.5 |
| 20260831042352 | 74 | 105 | 0.0 | 0.0 | 0.00 | 0.00 | 0.00 | 99 | 1025.4 |
| 20260831041847 | 75 | 104 | 0.0 | 0.0 | 0.00 | 0.00 | 0.00 | 99 | 1025.5 |
| 20260831041346 | 74 | 105 | 0.0 | 0.0 | 0.00 | 0.00 | 0.00 | 99 | 1025.6 |
| 20260831040841 | 74 | 105 | 0.0 | 0.0 | 0.00 | 0.00 | 0.00 | 99 | 1025.5 |
| 20260831040336 | 75 | 105 | 0.0 | 0.0 | 0.00 | 0.00 | 0.00 | 99 | 1025.4 |
| 20260831035834 | 75 | 105 | 0.0 | 0.0 | 0.00 | 0.00 | 0.00 | 99 | 1025.5 |
| 20260831035333 | 75 | 103 | 0.0 | 0.0 | 0.00 | 0.00 | 0.00 | 99 | 1025.6 |
| 20260831034828 | 75 | 104 | 0.0 | 0.0 | 0.00 | 0.00 | 0.00 | 99 | 1025.4 |
| 20260831034324 | 75 | 104 | 0.0 | 0.0 | 0.00 | 0.00 | 0.00 | 99 | 1025.5 |
| 20260831033819 | 75 | 104 | 0.0 | 0.0 | 0.00 | 0.00 | 0.00 | 99 | 1025.3 |
| 20260831033318 | 75 | 104 | 0.0 | 0.0 | 0.00 | 0.00 | 0.00 | 99 | 1025.6 |
| 20260831032814 | 75 | 104 | 0.0 | 0.0 | 0.00 | 0.00 | 0.00 | 99 | 1025.6 |
| 20260831032308 | 75 | 104 | 0.0 | 0.0 | 0.00 | 0.00 | 0.00 | 99 | 1025.5 |
| 20260831031804 | 75 | 104 | 0.0 | 0.0 | 0.00 | 0.00 | 0.00 | 99 | 1025.8 |
| 20260831031303 | 75 | 104 | 0.0 | 0.0 | 0.00 | 0.00 | 0.00 | 99 | 1025.8 |
| 20260831030758 | 75 | 104 | 0.0 | 0.0 | 0.00 | 0.00 | 0.00 | 99 | 1025.7 |
| 20260831030256 | 75 | 104 | 0.0 | 0.0 | 0.00 | 0.00 | 0.00 | 99 | 1025.7 |
| 20260831025755 | 75 | 104 | 0.0 | 0.0 | 0.00 | 0.00 | 0.00 | 99 | 1025.8 |
| 20260831025250 | 75 | 104 | 0.0 | 0.0 | 0.00 | 0.00 | 0.00 | 99 | 1025.9 |
| 20260831024746 | 75 | 104 | 0.0 | 0.0 | 0.00 | 0.00 | 0.00 | 99 | 1025.9 |
| 20260831024244 | 75 | 104 | 0.0 | 0.0 | 0.00 | 0.00 | 0.00 | 99 | 1025.8 |
| 20260831023743 | 75 | 104 | 0.0 | 0.0 | 0.00 | 0.00 | 0.00 | 98 | 1025.8 |
| 20260831023237 | 75 | 104 | 0.0 | 0.0 | 0.00 | 0.00 | 0.00 | 98 | 1026.0 |
| 20260831022732 | 75 | 104 | 0.0 | 0.0 | 0.00 | 0.00 | 0.00 | 98 | 1025.7 |
| 20260831022232 | 75 | 104 | 0.0 | 0.0 | 0.00 | 0.00 | 0.00 | 98 | 1025.9 |
| 20260831021727 | 76 | 104 | 0.0 | 0.0 | 0.00 | 0.00 | 0.00 | 98 | 1025.9 |
| 20260831021226 | 76 | 104 | 0.0 | 0.0 | 0.00 | 0.00 | 0.00 | 98 | 1025.8 |
| 20260831020723 | 76 | 104 | 0.0 | 0.0 | 0.00 | 0.00 | 0.00 | 98 | 1025.9 |
| 20260831020222 | 76 | 104 | 0.0 | 0.0 | 0.00 | 0.00 | 0.00 | 98 | 1025.8 |
| 20260831015718 | 76 | 104 | 0.0 | 0.0 | 0.00 | 0.00 | 0.00 | 98 | 1025.6 |
| 20260831015213 | 76 | 104 | 0.0 | 1.0 | 0.00 | 0.00 | 0.00 | 98 | 1025.9 |
| 20260831014708 | 76 | 104 | 0.0 | 0.0 | 0.00 | 0.00 | 0.00 | 97 | 1025.7 |
| 20260831014203 | 76 | 104 | 1.0 | 1.0 | 0.00 | 0.00 | 0.00 | 97 | 1025.7 |
| 20260831013659 | 76 | 104 | 1.0 | 1.0 | 0.00 | 0.00 | 0.00 | 97 | 1025.7 |
| 20260831013158 | 76 | 104 | 1.0 | 1.0 | 0.00 | 0.00 | 0.00 | 97 | 1025.9 |
| 20260831012653 | 77 | 102 | 0.0 | 1.0 | 0.00 | 0.00 | 0.00 | 97 | 1025.7 |
| 20260831012149 | 77 | 102 | 1.0 | 1.0 | 0.00 | 0.00 | 0.00 | 97 | 1025.6 |
| 20260831011647 | 77 | 102 | 0.0 | 1.0 | 0.00 | 0.00 | 0.00 | 97 | 1025.4 |
| 20260831011144 | 77 | 102 | 0.0 | 1.0 | 0.00 | 0.00 | 0.00 | 97 | 1025.4 |
| 20260831010639 | 77 | 102 | 1.0 | 1.0 | 0.00 | 0.00 | 0.00 | 97 | 1025.5 |
| 20260831010134 | 77 | 102 | 1.0 | 1.0 | 0.00 | 0.00 | 0.00 | 96 | 1025.4 |
| 20260831005628 | 77 | 102 | 0.0 | 1.0 | 0.00 | 0.00 | 0.00 | 96 | 1025.3 |
| 20260831005118 | 77 | 102 | 1.0 | 1.0 | 0.00 | 0.00 | 0.00 | 96 | 1025.0 |
| 20260831004614 | 77 | 108 | 1.0 | 1.0 | 0.00 | 0.00 | 0.00 | 96 | 1025.2 |
| 20260831004109 | 77 | 108 | 0.0 | 1.0 | 0.00 | 0.00 | 0.00 | 95 | 1024.9 |
| 20260831003605 | 78 | 108 | 0.0 | 0.0 | 0.00 | 0.00 | 0.00 | 95 | 1025.1 |
| 20260831003101 | 78 | 107 | 1.0 | 1.0 | 0.00 | 0.00 | 0.00 | 95 | 1025.1 |
| 20260831002559 | 78 | 114 | 1.0 | 1.0 | 0.00 | 0.00 | 0.00 | 94 | 1025.2 |
| 20260831002055 | 78 | 114 | 0.0 | 1.0 | 0.00 | 0.00 | 0.00 | 94 | 1025.1 |
| 20260831001550 | 78 | 115 | 1.0 | 1.0 | 0.00 | 0.00 | 0.00 | 93 | 1025.0 |
| 20260831001047 | 78 | 115 | 0.0 | 0.0 | 0.00 | 0.00 | 0.00 | 93 | 1025.0 |
| 20260831000543 | 78 | 115 | 0.0 | 1.0 | 0.00 | 0.00 | 0.00 | 93 | 1024.8 |
| 20260831000042 | 79 | 115 | 0.0 | 1.0 | 0.00 | 0.00 | 0.00 | 93 | 1025.1 |
| 20260830235541 | 79 | 115 | 0.0 | 1.0 | 0.00 | 0.00 | 0.00 | 92 | 1025.1 |
| 20260830235036 | 80 | 115 | 1.0 | 1.0 | 0.00 | 0.00 | 0.00 | 91 | 1024.8 |
| 20260830234531 | 80 | 115 | 0.0 | 1.0 | 0.00 | 0.00 | 0.00 | 90 | 1025.0 |
| 20260830234026 | 80 | 115 | 1.0 | 1.0 | 0.00 | 0.00 | 0.00 | 89 | 1024.7 |
| 20260830233521 | 80 | 115 | 0.0 | 1.0 | 0.00 | 0.00 | 0.00 | 89 | 1024.7 |
| 20260830233018 | 80 | 115 | 1.0 | 2.0 | 0.00 | 0.00 | 0.00 | 89 | 1024.8 |
| 20260830232514 | 80 | 101 | 3.0 | 3.0 | 0.00 | 0.00 | 0.00 | 89 | 1024.8 |
| 20260830232010 | 80 | 142 | 1.0 | 2.0 | 0.00 | 0.00 | 0.00 | 89 | 1024.8 |
| 20260830231505 | 81 | 115 | 1.0 | 1.0 | 0.00 | 0.00 | 0.00 | 88 | 1024.8 |
| 20260830231004 | 81 | 125 | 0.0 | 2.0 | 0.00 | 0.00 | 0.00 | 88 | 1024.8 |
| 20260830230500 | 81 | 98 | 3.0 | 5.0 | 0.00 | 0.00 | 0.00 | 87 | 1024.7 |
| 20260830225958 | 82 | 108 | 2.0 | 5.0 | 0.00 | 0.00 | 0.00 | 88 | 1024.8 |
| 20260830225455 | 82 | 121 | 1.0 | 1.0 | 0.00 | 0.00 | 0.00 | 88 | 1024.7 |
| 20260830224954 | 81 | 107 | 0.0 | 0.0 | 0.00 | 0.00 | 0.00 | 90 | 1024.8 |
| 20260830224453 | 80 | 107 | 0.0 | 1.0 | 0.00 | 0.00 | 0.00 | 90 | 1024.9 |
| 20260830223950 | 80 | 117 | 1.0 | 1.0 | 0.00 | 0.00 | 0.00 | 90 | 1024.9 |
| 20260830223446 | 80 | 133 | 2.0 | 3.0 | 0.00 | 0.00 | 0.00 | 90 | 1024.9 |
| 20260830222944 | 80 | 126 | 2.0 | 3.0 | 0.00 | 0.00 | 0.00 | 90 | 1025.0 |
| 20260830222440 | 80 | 108 | 0.0 | 2.0 | 0.00 | 0.00 | 0.00 | 91 | 1024.9 |
| 20260830221936 | 80 | 89 | 1.0 | 3.0 | 0.00 | 0.00 | 0.00 | 91 | 1024.7 |
| 20260830221432 | 80 | 119 | 3.0 | 3.0 | 0.00 | 0.00 | 0.00 | 90 | 1024.7 |
| 20260830220927 | 81 | 120 | 1.0 | 1.0 | 0.00 | 0.00 | 0.00 | 90 | 1025.1 |